Regional Weather Roundup
Issued by NWS Binghamton, NY

Home | Current Version | Previous Version | Text Only | Print | Product List | Glossary On
Versions: 1 2 3 4 5 6 7 8 9 10 11 12 13 14 15 16 17 18 19 20 21 22 23 24 25 26 27 28 29 30 31 32 33 34 35 36 37 38 39 40 41 42 43 44 45 46 47 48 49 50
000
ASUS41 KBGM 230010
RWRBGM
RWRBGM
BINGHAMTON REGIONAL WEATHER ROUNDUP
NATIONAL WEATHER SERVICE BINGHAMTON NY
800 PM EDT MON SEP 22 2014

Note: "fair" indicates few or no clouds below 12,000 feet with no
significant weather and/or obstructions to visibility.

* = Station(s) that does not report precipitation, such as rain,
snow, etc, also no thunder or fog.

!NYZ009-015>018-022>025-036-037-044>046-055>057-062-230100
...CENTRAL NEW YORK...

CITY           SKY/WX    TMP DP  RH WIND       PRES   REMARKS
BINGHAMTON     CLOUDY    49  39  68 NW8       30.12R
CORTLAND       CLOUDY    48  43  81 W3        30.15R
DANSVILLE      PTCLDY    49  42  77 CALM      30.17R
ELMIRA         CLOUDY    51  39  63 NW3       30.15R
ITHACA         MOCLDY    50  40  68 W7        30.16R
HAMILTON       CLOUDY    52  43  71 NW7       30.12R
MONTICELLO     PTCLDY    48  37  66 NW8       30.10R
NORWICH        CLOUDY    48  39  71 CALM      30.13R
ONEONTA        MOCLDY    46  37  71 W7        30.10R
PENN YAN       CLOUDY    50  40  68 SW7       30.15R
ROME           CLOUDY    50  43  77 W7        30.11R
SIDNEY         CLOUDY    52  45  76 CALM      30.13R
SYRACUSE       CLOUDY    54  42  64 W12       30.11R
$$

!PAZ038>040-043-044-047-048-072-230100
...NORTHEAST PENNSYLVANIA...

CITY           SKY/WX    TMP DP  RH WIND       PRES   REMARKS
HAZLETON       PTCLDY    52  41  66 NW9G17    30.14R
SCRANTON       MOCLDY    54  39  57 N8        30.12R
TOWANDA*       MOCLDY    54  37  54 W6        30.16R
$$
&&
KEY
WCI = WIND CHILL INDEX
VSB = VISIBILITY
HX  = HEAT INDEX
$$


USA.gov is the U.S. government's official web portal to all federal, state and local government web resources and services.